Regional Weather Roundup
Issued by NWS

Home | Current Version | Previous Version | Graphics & Text | Print | Product List | Glossary On
Versions: 1 2 3 4 5 6 7 8 9 10 11 12 13 14 15 16 17 18 19 20 21 22 23 24 25 26 27 28 29 30 31 32 33 34 35 36 37 38 39 40 41 42 43 44 45 46 47 48 49 50
000
ASUS43 KLMK 041202
RWRKY
KENTUCKY REGIONAL WEATHER ROUNDUP
NATIONAL WEATHER SERVICE LOUISVILLE KY
800 AM EDT TUE AUG 04 2015

NOTE "FAIR" INDICATES FEW OR NO CLOUDS BELOW 12,000 FEET
WITH NO SIGNIFICANT WEATHER AND/OR OBSTRUCTIONS TO VISIBILITY.

KYZ001>023-026-027-061>063-070>075-041300-
WESTERN AND SOUTH CENTRAL KENTUCKY

CITY           SKY/WX    TMP DP  RH WIND       PRES   REMARKS
PADUCAH        MOSUNNY   73  71  93 CALM      29.96R
HENDERSON      PTSUNNY   72  68  88 CALM      29.96S
OWENSBORO      PTSUNNY   73  71  93 CALM      29.98R FOG
HOPKINSVILLE   MOSUNNY   74  70  89 S2        29.99R
BOWLING GREEN  PTSUNNY   75  70  84 S5        29.99R
GLASGOW        NOT AVBL
$$

KYZ024-025-028>034-038-045-046-053-041300-
NORTH CENTRAL KENTUCKY

CITY           SKY/WX    TMP DP  RH WIND       PRES   REMARKS
LOUISVILLE/SDF PTSUNNY   77  67  71 CALM      29.97R
LOUISVILLE/LOU PTSUNNY   75  67  76 NW3       29.98R
FORT KNOX      PTSUNNY   70  69  96 CALM      29.97R
$$

KYZ035>037-039>044-047>052-055>060-089>105-041300-
NORTHEAST KENTUCKY

CITY           SKY/WX    TMP DP  RH WIND       PRES   REMARKS
LEXINGTON      SUNNY     71  68  90 SW3       29.99R
COVINGTON      MOSUNNY   69  66  90 SE3       29.97S
FRANKFORT      CLOUDY    71  67  87 CALM      29.97S
$$

KYZ054-064>069-076>088-106>120-041300-
SOUTHEAST KENTUCKY

CITY           SKY/WX    TMP DP  RH WIND       PRES   REMARKS
JACKSON        MOSUNNY   67  65  93 CALM      30.01R
LONDON         MOSUNNY   71  66  84 CALM      30.02R
SOMERSET       NOT AVBL
MIDDLESBORO    MOSUNNY   68  67  96 CALM      30.04R
MONTICELLO     SUNNY     70  70 100 CALM      30.04R FOG
$$



USA.gov is the U.S. government's official web portal to all federal, state and local government web resources and services.